Regional Weather Roundup
Issued by NWS Bismarck, ND

Home | Current Version | Previous Version | Text Only | Print | Product List | Glossary On
Versions: 1 2 3 4 5 6 7 8 9 10 11 12 13 14 15 16 17 18 19 20 21 22 23 24 25 26 27 28 29 30 31 32 33 34 35 36 37 38 39 40 41 42 43 44 45 46 47 48 49 50
000
ASUS43 KBIS 020401
RWRBIS

NWR BROADCAST TEXT
NATIONAL WEATHER SERVICE BISMARCK ND
1100 PM CDT WED APR 01 2015

NOTE: "FAIR" INDICATES FEW OR NO CLOUDS BELOW 12,000 FEET WITH NO
SIGNIFICANT WEATHER AND/OR OBSTRUCTIONS TO VISIBILITY.


CITY           SKY/WX    TMP DP  RH WIND       PRES   REMARKS
WILLISTON      CLEAR     42  24  49 SW10      29.66F
MINOT          CLEAR     43  23  45 SW15      29.63F
MINOT AFB      PTCLDY    36  27  70 W10       29.63S
BISMARCK       PTCLDY    44  24  45 W12       29.74S
DICKINSON      CLEAR     32  20  61 SW8       29.73F
GARRISON         N/A     37  25  61 W9        29.68S
HETTINGER ARPT CLEAR     28  18  66 CALM      29.80R
JAMESTOWN      PTCLDY    42  28  57 W13       29.64F
CARRINGTON     FAIR      36  27  69 W12       29.66F
HAZEN          FAIR      37  25  60 SW8       29.72F
OAKES            N/A     46  32  57 W16       29.66R
$$

CITY           SKY/WX    TMP DP  RH WIND       PRES   REMARKS
GRAND FORKS    MOCLDY    45  34  65 W10       29.57S
GRAND FORKS AF MOCLDY    46  33  61 NW15      29.58S
DEVILS LAKE    CLEAR     37  28  70 W10       29.61S
FARGO          CLEAR     50  34  54 W13       29.61R
GWINNER        CLEAR     50  30  46 NW14        N/A
ROLLA          FAIR      37  27  65 W9        29.59S
$$

CITY           SKY/WX    TMP DP  RH WIND       PRES   REMARKS
ABERDEEN       PTCLDY    50  29  44 NW13      29.70R
MOBRIDGE       PTCLDY    41  25  53 NW7       29.74R
BUFFALO          N/A     33  14  45 W8        29.76S
RAPID CITY     PTCLDY    38  14  37 W5        29.86R
GLASGOW        PTCLDY    42  22  44 NW25G40   29.72R
SIDNEY         PTCLDY    39  25  56 SW12      29.71S
WOLF POINT     PTCLDY    45  21  38 W14       29.68F
GLENDIVE         N/A     30  23  74 W9        29.76S
MILES CITY     PTCLDY    38  15  39 SW10      29.81S
BAKER          CLEAR     39  17  41 SW13      29.79F
$$

CITY           SKY/WX    TMP DP  RH WIND       PRES   REMARKS
BILLINGS       PTCLDY    41  16  36 W24G33    29.89S
GREAT FALLS    PTCLDY    37  15  40 W16       29.92R
$$




USA.gov is the U.S. government's official web portal to all federal, state and local government web resources and services.